Location: Dürabuch
(48.2640°N, 11.2185°E)
Time: 02:46:08
(UTC+00:00)

IDEFIX/ARIANE 42P - Pass Details

Date: 23 May 2024
Orbit: 783 x 799 km, 98.5° (Epoch: 19 June)

Event Time Altitude Azimuth Distance (km) Brightness Sun altitude
Rises 01:17:28 0° 13° (NNE) 3,317 7.3 -15.6°
Reaches altitude 10° 01:19:48 10° 12° (NNE) 2,384 6.2 -15.4°
Maximum altitude 01:25:05 80° 287° (WNW) 818 2.6 -14.9°
Enters shadow 01:28:35 22° 202° (SSW) 1,701 3.7 -14.6°
